Time,TemperatureF,DewpointF,PressureIn,WindDirection,WindDirectionDegrees,WindSpeedMPH,WindSpeedGustMPH,Humidity,HourlyPrecipIn,Conditions,Clouds,dailyrainin,SoftwareType,DateUTC
2013-04-11 00:04:00,57.1,48.8,29.95,North,0,0.0,0.0,74,0.00,,,0.00,WUHU216HW,2013-04-11 07:04:00,
2013-04-11 00:09:00,57.1,48.8,29.96,North,0,0.0,0.0,74,0.00,,,0.00,WUHU216HW,2013-04-11 07:09:00,
2013-04-11 00:15:00,57.1,48.8,29.95,North,0,0.0,0.0,74,0.00,,,0.00,WUHU216HW,2013-04-11 07:15:00,
2013-04-11 00:20:00,56.9,48.6,29.95,North,0,0.0,0.0,74,0.00,,,0.00,WUHU216HW,2013-04-11 07:20:00,
2013-04-11 00:25:00,56.9,48.6,29.95,North,0,0.0,0.0,74,0.00,,,0.00,WUHU216HW,2013-04-11 07:25:00,
2013-04-11 00:30:00,56.9,49.0,29.95,North,0,0.0,0.0,75,0.00,,,0.00,WUHU216HW,2013-04-11 07:30:00,
2013-04-11 00:35:00,57.1,48.8,29.95,North,0,0.0,0.0,74,0.00,,,0.00,WUHU216HW,2013-04-11 07:35:00,
2013-04-11 00:40:00,57.1,48.8,29.95,North,0,0.0,0.0,74,0.00,,,0.00,WUHU216HW,2013-04-11 07:40:00,
2013-04-11 00:45:00,57.2,48.6,29.95,North,0,0.0,0.0,73,0.00,,,0.00,WUHU216HW,2013-04-11 07:45:00,
2013-04-11 00:50:00,57.2,48.6,29.95,North,0,0.0,0.0,73,0.00,,,0.00,WUHU216HW,2013-04-11 07:50:00,
2013-04-11 00:55:00,57.2,48.6,29.94,North,0,0.0,0.0,73,0.00,,,0.00,WUHU216HW,2013-04-11 07:55:00,
2013-04-11 01:00:00,57.2,48.6,29.94,North,0,0.0,0.0,73,0.00,,,0.00,WUHU216HW,2013-04-11 08:00:00,
2013-04-11 01:05:00,57.2,48.6,29.94,North,0,0.0,0.0,73,0.00,,,0.00,WUHU216HW,2013-04-11 08:05:00,
2013-04-11 01:10:00,57.1,48.4,29.94,North,0,0.0,0.0,73,0.00,,,0.00,WUHU216HW,2013-04-11 08:10:00,
2013-04-11 01:15:00,57.1,48.4,29.95,North,0,0.0,0.0,73,0.00,,,0.00,WUHU216HW,2013-04-11 08:15:00,
2013-04-11 01:20:00,57.1,48.4,29.95,North,0,0.0,0.0,73,0.00,,,0.00,WUHU216HW,2013-04-11 08:20:00,
2013-04-11 01:25:00,56.9,48.2,29.95,North,0,0.0,0.0,73,0.00,,,0.00,WUHU216HW,2013-04-11 08:25:00,
2013-04-11 01:30:00,56.9,48.2,29.95,North,0,0.0,0.0,73,0.00,,,0.00,WUHU216HW,2013-04-11 08:30:00,
2013-04-11 01:35:00,56.7,48.4,29.95,North,0,0.0,0.0,74,0.00,,,0.00,WUHU216HW,2013-04-11 08:35:00,
2013-04-11 01:40:00,56.5,48.2,29.95,North,0,0.0,0.0,74,0.00,,,0.00,WUHU216HW,2013-04-11 08:40:00,
2013-04-11 01:45:00,56.5,48.6,29.94,North,0,0.0,0.0,75,0.00,,,0.00,WUHU216HW,2013-04-11 08:45:00,
2013-04-11 01:50:00,56.2,48.6,29.94,North,0,0.0,0.0,76,0.00,,,0.00,WUHU216HW,2013-04-11 08:50:00,
2013-04-11 01:55:00,56.2,48.6,29.94,North,0,0.0,0.0,76,0.00,,,0.00,WUHU216HW,2013-04-11 08:55:00,
2013-04-11 02:00:00,56.0,48.5,29.94,North,0,0.0,0.0,76,0.00,,,0.00,WUHU216HW,2013-04-11 09:00:00,
2013-04-11 02:06:00,55.8,48.3,29.93,North,0,0.0,0.0,76,0.00,,,0.00,WUHU216HW,2013-04-11 09:06:00,
2013-04-11 02:11:00,55.6,48.5,29.94,North,0,0.0,0.0,77,0.00,,,0.00,WUHU216HW,2013-04-11 09:11:00,
2013-04-11 02:16:00,55.4,48.6,29.94,North,0,0.0,0.0,78,0.00,,,0.00,WUHU216HW,2013-04-11 09:16:00,
2013-04-11 02:21:00,55.4,48.6,29.94,North,0,0.0,0.0,78,0.00,,,0.00,WUHU216HW,2013-04-11 09:21:00,
2013-04-11 02:26:00,55.4,48.6,29.93,North,0,0.0,0.0,78,0.00,,,0.00,WUHU216HW,2013-04-11 09:26:00,
2013-04-11 02:31:00,55.3,48.5,29.93,North,0,0.0,0.0,78,0.00,,,0.00,WUHU216HW,2013-04-11 09:31:00,
2013-04-11 02:36:00,55.3,48.2,29.93,North,0,0.0,0.0,77,0.00,,,0.00,WUHU216HW,2013-04-11 09:36:00,
2013-04-11 02:41:00,55.3,48.5,29.93,North,0,0.0,0.0,78,0.00,,,0.00,WUHU216HW,2013-04-11 09:41:00,
2013-04-11 02:46:00,55.3,48.2,29.93,North,0,0.0,0.0,77,0.00,,,0.00,WUHU216HW,2013-04-11 09:46:00,
2013-04-11 02:52:00,55.3,48.5,29.93,North,0,0.0,0.0,78,0.00,,,0.00,WUHU216HW,2013-04-11 09:52:00,
2013-04-11 02:57:00,55.3,48.5,29.92,North,0,0.0,0.0,78,0.00,,,0.00,WUHU216HW,2013-04-11 09:57:00,
2013-04-11 03:02:00,55.1,48.0,29.92,North,0,0.0,0.0,77,0.00,,,0.00,WUHU216HW,2013-04-11 10:02:00,
2013-04-11 03:07:00,55.1,48.0,29.92,North,0,0.0,0.0,77,0.00,,,0.00,WUHU216HW,2013-04-11 10:07:00,
2013-04-11 03:12:00,55.1,48.3,29.92,North,0,0.0,0.0,78,0.00,,,0.00,WUHU216HW,2013-04-11 10:12:00,
2013-04-11 03:17:00,54.9,48.2,29.92,North,0,0.0,0.0,78,0.00,,,0.00,WUHU216HW,2013-04-11 10:17:00,
2013-04-11 03:22:00,54.9,48.2,29.92,North,0,0.0,0.0,78,0.00,,,0.00,WUHU216HW,2013-04-11 10:22:00,
2013-04-11 03:27:00,55.1,48.3,29.92,North,0,0.0,0.0,78,0.00,,,0.00,WUHU216HW,2013-04-11 10:27:00,
2013-04-11 03:32:00,54.9,48.2,29.92,North,0,0.0,0.0,78,0.00,,,0.00,WUHU216HW,2013-04-11 10:32:00,
2013-04-11 03:38:00,54.7,48.0,29.92,North,0,0.0,0.0,78,0.00,,,0.00,WUHU216HW,2013-04-11 10:38:00,
2013-04-11 03:43:00,54.7,48.3,29.93,North,0,0.0,0.0,79,0.00,,,0.00,WUHU216HW,2013-04-11 10:43:00,
2013-04-11 03:48:00,54.4,47.6,29.93,North,0,0.0,0.0,78,0.00,,,0.00,WUHU216HW,2013-04-11 10:48:00,
2013-04-11 03:53:00,54.2,47.8,29.92,North,0,0.0,0.0,79,0.00,,,0.00,WUHU216HW,2013-04-11 10:53:00,
2013-04-11 03:58:00,54.0,48.1,29.93,North,0,0.0,0.0,80,0.00,,,0.00,WUHU216HW,2013-04-11 10:58:00,
2013-04-11 04:03:00,54.0,48.1,29.92,North,0,0.0,0.0,80,0.00,,,0.00,WUHU216HW,2013-04-11 11:03:00,
2013-04-11 04:08:00,54.0,48.1,29.93,North,0,0.0,0.0,80,0.00,,,0.00,WUHU216HW,2013-04-11 11:08:00,
2013-04-11 04:13:00,53.8,47.9,29.93,North,0,0.0,0.0,80,0.00,,,0.00,WUHU216HW,2013-04-11 11:13:00,
2013-04-11 04:18:00,53.8,47.9,29.92,North,0,0.0,0.0,80,0.00,,,0.00,WUHU216HW,2013-04-11 11:18:00,
2013-04-11 04:23:00,53.8,47.9,29.92,North,0,0.0,0.0,80,0.00,,,0.00,WUHU216HW,2013-04-11 11:23:00,
2013-04-11 04:28:00,53.8,47.9,29.93,North,0,0.0,0.0,80,0.00,,,0.00,WUHU216HW,2013-04-11 11:28:00,
2013-04-11 04:33:00,53.8,47.5,29.93,North,0,0.0,0.0,79,0.00,,,0.00,WUHU216HW,2013-04-11 11:33:00,
2013-04-11 04:38:00,53.6,47.3,29.92,North,0,0.0,0.0,79,0.00,,,0.00,WUHU216HW,2013-04-11 11:38:00,
2013-04-11 04:43:00,53.6,47.3,29.92,North,0,0.0,0.0,79,0.00,,,0.00,WUHU216HW,2013-04-11 11:43:00,
2013-04-11 04:48:00,53.6,47.3,29.93,North,0,0.0,0.0,79,0.00,,,0.00,WUHU216HW,2013-04-11 11:48:00,
2013-04-11 04:53:00,53.6,47.3,29.92,North,0,0.0,0.0,79,0.00,,,0.00,WUHU216HW,2013-04-11 11:53:00,
2013-04-11 04:58:00,53.3,47.0,29.92,North,0,0.0,0.0,79,0.00,,,0.00,WUHU216HW,2013-04-11 11:58:00,
2013-04-11 05:03:00,53.3,47.3,29.92,North,0,0.0,0.0,80,0.00,,,0.00,WUHU216HW,2013-04-11 12:03:00,
2013-04-11 05:08:00,53.1,47.2,29.92,North,0,0.0,0.0,80,0.00,,,0.00,WUHU216HW,2013-04-11 12:08:00,
2013-04-11 05:13:00,52.9,47.0,29.92,North,0,0.0,0.0,80,0.00,,,0.00,WUHU216HW,2013-04-11 12:13:00,
2013-04-11 05:18:00,52.9,47.0,29.92,North,0,0.0,0.0,80,0.00,,,0.00,WUHU216HW,2013-04-11 12:18:00,
2013-04-11 05:24:00,52.7,46.8,29.92,North,0,0.0,0.0,80,0.00,,,0.00,WUHU216HW,2013-04-11 12:24:00,
2013-04-11 05:29:00,52.7,47.1,29.92,North,0,0.0,0.0,81,0.00,,,0.00,WUHU216HW,2013-04-11 12:29:00,
2013-04-11 05:34:00,52.6,46.9,29.92,North,0,0.0,0.0,81,0.00,,,0.00,WUHU216HW,2013-04-11 12:34:00,
2013-04-11 05:39:00,52.4,47.1,29.92,North,0,0.0,0.0,82,0.00,,,0.00,WUHU216HW,2013-04-11 12:39:00,
2013-04-11 05:44:00,52.2,46.9,29.92,North,0,0.0,0.0,82,0.00,,,0.00,WUHU216HW,2013-04-11 12:44:00,
2013-04-11 05:49:00,52.2,46.9,29.92,North,0,0.0,0.0,82,0.00,,,0.00,WUHU216HW,2013-04-11 12:49:00,
2013-04-11 05:54:00,52.2,46.9,29.92,North,0,0.0,0.0,82,0.00,,,0.00,WUHU216HW,2013-04-11 12:54:00,
2013-04-11 05:59:00,52.0,46.7,29.92,North,0,0.0,0.0,82,0.00,,,0.00,WUHU216HW,2013-04-11 12:59:00,
2013-04-11 06:04:00,51.8,46.5,29.92,North,0,0.0,0.0,82,0.00,,,0.00,WUHU216HW,2013-04-11 13:04:00,
2013-04-11 06:09:00,51.8,46.5,29.92,North,0,0.0,0.0,82,0.00,,,0.00,WUHU216HW,2013-04-11 13:09:00,
2013-04-11 06:14:00,51.7,46.6,29.91,North,0,0.0,0.0,83,0.00,,,0.00,WUHU216HW,2013-04-11 13:14:00,
2013-04-11 06:19:00,51.7,46.4,29.92,North,0,0.0,0.0,82,0.00,,,0.00,WUHU216HW,2013-04-11 13:19:00,
2013-04-11 06:24:00,51.5,46.4,29.92,North,0,0.0,0.0,83,0.00,,,0.00,WUHU216HW,2013-04-11 13:24:00,
2013-04-11 06:30:00,51.5,46.4,29.92,North,0,0.0,0.0,83,0.00,,,0.00,WUHU216HW,2013-04-11 13:30:00,
2013-04-11 06:35:00,51.3,46.3,29.92,North,0,0.0,0.0,83,0.00,,,0.00,WUHU216HW,2013-04-11 13:35:00,
2013-04-11 06:40:00,51.3,46.3,29.92,North,0,0.0,0.0,83,0.00,,,0.00,WUHU216HW,2013-04-11 13:40:00,
2013-04-11 06:45:00,51.1,46.1,29.93,North,0,0.0,0.0,83,0.00,,,0.00,WUHU216HW,2013-04-11 13:45:00,
2013-04-11 06:50:00,51.3,46.3,29.92,North,0,0.0,0.0,83,0.00,,,0.00,WUHU216HW,2013-04-11 13:50:00,
2013-04-11 06:55:00,51.1,46.1,29.92,North,0,0.0,0.0,83,0.00,,,0.00,WUHU216HW,2013-04-11 13:55:00,
2013-04-11 07:00:00,51.1,46.1,29.92,North,0,0.0,0.0,83,0.00,,,0.00,WUHU216HW,2013-04-11 14:00:00,
2013-04-11 07:05:00,51.1,46.1,29.92,North,0,0.0,0.0,83,0.00,,,0.00,WUHU216HW,2013-04-11 14:05:00,
2013-04-11 07:10:00,51.1,46.1,29.93,North,0,0.0,0.0,83,0.00,,,0.00,WUHU216HW,2013-04-11 14:10:00,
2013-04-11 07:15:00,51.1,46.1,29.93,North,0,0.0,0.0,83,0.00,,,0.00,WUHU216HW,2013-04-11 14:15:00,
2013-04-11 07:20:00,51.1,46.1,29.93,North,0,0.0,0.0,83,0.00,,,0.00,WUHU216HW,2013-04-11 14:20:00,
2013-04-11 07:25:00,51.1,46.1,29.93,North,0,0.0,0.0,83,0.00,,,0.00,WUHU216HW,2013-04-11 14:25:00,
2013-04-11 07:30:00,51.3,46.3,29.93,North,0,0.0,0.0,83,0.00,,,0.00,WUHU216HW,2013-04-11 14:30:00,
2013-04-11 07:35:00,51.5,46.4,29.93,North,0,0.0,0.0,83,0.00,,,0.00,WUHU216HW,2013-04-11 14:35:00,
2013-04-11 07:40:00,51.5,46.4,29.93,North,0,0.0,0.0,83,0.00,,,0.00,WUHU216HW,2013-04-11 14:40:00,
2013-04-11 07:46:00,51.7,46.4,29.93,North,0,0.0,0.0,82,0.00,,,0.00,WUHU216HW,2013-04-11 14:46:00,
2013-04-11 07:51:00,51.8,46.8,29.93,North,0,0.0,0.0,83,0.00,,,0.00,WUHU216HW,2013-04-11 14:51:00,
2013-04-11 07:56:00,51.8,46.5,29.93,North,0,0.0,0.0,82,0.00,,,0.00,WUHU216HW,2013-04-11 14:56:00,
2013-04-11 08:01:00,52.0,47.0,29.93,North,0,0.0,0.0,83,0.00,,,0.00,WUHU216HW,2013-04-11 15:01:00,
2013-04-11 08:06:00,52.2,47.2,29.93,North,0,0.0,0.0,83,0.00,,,0.00,WUHU216HW,2013-04-11 15:06:00,
2013-04-11 08:11:00,52.2,46.9,29.93,North,0,0.0,0.0,82,0.00,,,0.00,WUHU216HW,2013-04-11 15:11:00,
2013-04-11 08:16:00,52.4,47.1,29.93,North,0,0.0,0.0,82,0.00,,,0.00,WUHU216HW,2013-04-11 15:16:00,
2013-04-11 08:21:00,52.6,47.3,29.93,North,0,0.0,0.0,82,0.00,,,0.00,WUHU216HW,2013-04-11 15:21:00,
2013-04-11 08:26:00,52.6,47.3,29.93,North,0,0.0,0.0,82,0.00,,,0.00,WUHU216HW,2013-04-11 15:26:00,
2013-04-11 08:31:00,52.7,47.4,29.93,North,0,0.0,0.0,82,0.00,,,0.00,WUHU216HW,2013-04-11 15:31:00,
2013-04-11 08:37:00,52.9,47.6,29.93,North,0,0.0,0.0,82,0.00,,,0.00,WUHU216HW,2013-04-11 15:37:00,
2013-04-11 08:42:00,53.1,47.8,29.92,North,0,0.0,0.0,82,0.00,,,0.00,WUHU216HW,2013-04-11 15:42:00,
2013-04-11 08:47:00,53.3,48.0,29.93,North,0,0.0,0.0,82,0.00,,,0.00,WUHU216HW,2013-04-11 15:47:00,
2013-04-11 08:53:00,53.6,48.0,29.93,North,0,0.0,0.0,81,0.00,,,0.00,WUHU216HW,2013-04-11 15:53:00,
2013-04-11 08:58:00,53.6,48.0,29.92,North,0,0.0,0.0,81,0.00,,,0.00,WUHU216HW,2013-04-11 15:58:00,
2013-04-11 09:03:00,54.0,48.3,29.92,North,0,0.0,0.0,81,0.00,,,0.00,WUHU216HW,2013-04-11 16:03:00,
2013-04-11 09:08:00,54.4,48.3,29.92,North,0,0.0,0.0,80,0.00,,,0.00,WUHU216HW,2013-04-11 16:08:00,
2013-04-11 09:13:00,54.5,48.5,29.92,North,0,0.0,0.0,80,0.00,,,0.00,WUHU216HW,2013-04-11 16:13:00,
2013-04-11 09:18:00,54.9,48.5,29.92,North,0,0.0,0.0,79,0.00,,,0.00,WUHU216HW,2013-04-11 16:18:00,
2013-04-11 09:23:00,54.9,48.5,29.92,North,0,0.0,0.0,79,0.00,,,0.00,WUHU216HW,2013-04-11 16:23:00,
2013-04-11 09:28:00,55.3,48.8,29.92,North,0,0.0,0.0,79,0.00,,,0.00,WUHU216HW,2013-04-11 16:28:00,
2013-04-11 09:33:00,55.6,49.1,29.92,North,0,0.0,0.0,79,0.00,,,0.00,WUHU216HW,2013-04-11 16:33:00,
2013-04-11 09:39:00,56.0,49.5,29.92,North,0,0.0,0.0,79,0.00,,,0.00,WUHU216HW,2013-04-11 16:39:00,
2013-04-11 09:44:00,56.2,49.7,29.92,North,0,0.0,0.0,79,0.00,,,0.00,WUHU216HW,2013-04-11 16:44:00,
2013-04-11 09:49:00,56.5,49.7,29.92,North,0,0.0,0.0,78,0.00,,,0.00,WUHU216HW,2013-04-11 16:49:00,
2013-04-11 09:54:00,56.9,50.0,29.91,North,0,0.0,0.0,78,0.00,,,0.00,WUHU216HW,2013-04-11 16:54:00,
2013-04-11 09:59:00,57.2,50.0,29.91,North,0,0.0,0.0,77,0.00,,,0.00,WUHU216HW,2013-04-11 16:59:00,
2013-04-11 10:04:00,57.4,50.2,29.91,North,0,0.0,0.0,77,0.00,,,0.00,WUHU216HW,2013-04-11 17:04:00,
2013-04-11 10:09:00,57.8,50.2,29.91,North,0,0.0,0.0,76,0.00,,,0.00,WUHU216HW,2013-04-11 17:09:00,
2013-04-11 10:14:00,58.1,50.2,29.92,North,0,0.0,0.0,75,0.00,,,0.00,WUHU216HW,2013-04-11 17:14:00,
2013-04-11 10:19:00,58.7,50.8,29.91,North,0,0.0,0.0,75,0.00,,,0.00,WUHU216HW,2013-04-11 17:19:00,
2013-04-11 10:24:00,58.9,50.6,29.92,North,0,0.0,0.0,74,0.00,,,0.00,WUHU216HW,2013-04-11 17:24:00,
2013-04-11 10:29:00,59.4,51.1,29.92,North,0,0.0,0.0,74,0.00,,,0.00,WUHU216HW,2013-04-11 17:29:00,
2013-04-11 10:34:00,59.6,50.9,29.92,North,0,0.0,0.0,73,0.00,,,0.00,WUHU216HW,2013-04-11 17:34:00,
2013-04-11 10:39:00,59.8,51.1,29.92,North,0,0.0,0.0,73,0.00,,,0.00,WUHU216HW,2013-04-11 17:39:00,
2013-04-11 10:44:00,59.9,51.3,29.91,North,0,0.0,0.0,73,0.00,,,0.00,WUHU216HW,2013-04-11 17:44:00,
2013-04-11 10:49:00,60.1,51.5,29.91,North,0,0.0,0.0,73,0.00,,,0.00,WUHU216HW,2013-04-11 17:49:00,
2013-04-11 10:54:00,60.8,51.8,29.91,North,0,0.0,0.0,72,0.00,,,0.00,WUHU216HW,2013-04-11 17:54:00,
2013-04-11 10:59:00,61.4,51.6,29.91,North,0,0.0,0.0,70,0.00,,,0.00,WUHU216HW,2013-04-11 17:59:00,
2013-04-11 11:04:00,61.9,52.1,29.91,North,0,0.0,0.0,70,0.00,,,0.00,WUHU216HW,2013-04-11 18:04:00,
2013-04-11 11:09:00,62.3,52.4,29.91,North,0,0.0,0.0,70,0.00,,,0.00,WUHU216HW,2013-04-11 18:09:00,
2013-04-11 11:15:00,62.5,52.2,29.90,North,0,0.0,0.0,69,0.00,,,0.00,WUHU216HW,2013-04-11 18:15:00,
2013-04-11 11:20:00,62.8,52.5,29.90,North,0,0.0,0.0,69,0.00,,,0.00,WUHU216HW,2013-04-11 18:20:00,
2013-04-11 11:25:00,63.2,52.5,29.90,North,0,0.0,0.0,68,0.00,,,0.00,WUHU216HW,2013-04-11 18:25:00,
2013-04-11 11:30:00,63.7,52.1,29.91,North,0,0.0,0.0,66,0.00,,,0.00,WUHU216HW,2013-04-11 18:30:00,
2013-04-11 11:35:00,64.1,52.5,29.90,North,0,0.0,0.0,66,0.00,,,0.00,WUHU216HW,2013-04-11 18:35:00,
2013-04-11 11:40:00,64.3,52.2,29.90,North,0,0.0,0.0,65,0.00,,,0.00,WUHU216HW,2013-04-11 18:40:00,
2013-04-11 11:45:00,64.4,52.4,29.90,North,0,0.0,0.0,65,0.00,,,0.00,WUHU216HW,2013-04-11 18:45:00,
2013-04-11 11:50:00,64.8,52.8,29.90,North,0,0.0,0.0,65,0.00,,,0.00,WUHU216HW,2013-04-11 18:50:00,
2013-04-11 11:55:00,65.2,53.1,29.90,North,0,0.0,0.0,65,0.00,,,0.00,WUHU216HW,2013-04-11 18:55:00,
2013-04-11 12:00:00,65.7,52.3,29.89,North,0,0.0,0.0,62,0.00,,,0.00,WUHU216HW,2013-04-11 19:00:00,
2013-04-11 12:05:00,66.1,51.4,29.89,North,0,0.0,0.0,59,0.00,,,0.00,WUHU216HW,2013-04-11 19:05:00,
2013-04-11 12:10:00,66.6,51.4,29.89,North,0,0.0,0.0,58,0.00,,,0.00,WUHU216HW,2013-04-11 19:10:00,
2013-04-11 12:15:00,66.8,50.6,29.89,North,0,0.0,0.0,56,0.00,,,0.00,WUHU216HW,2013-04-11 19:15:00,
2013-04-11 12:20:00,67.1,50.4,29.89,North,0,0.0,0.0,55,0.00,,,0.00,WUHU216HW,2013-04-11 19:20:00,
2013-04-11 12:25:00,67.3,50.0,29.88,North,0,0.0,0.0,54,0.00,,,0.00,WUHU216HW,2013-04-11 19:25:00,
2013-04-11 12:30:00,67.7,50.4,29.88,North,0,0.0,0.0,54,0.00,,,0.00,WUHU216HW,2013-04-11 19:30:00,
2013-04-11 12:36:00,68.2,50.9,29.88,North,0,0.0,0.0,54,0.00,,,0.00,WUHU216HW,2013-04-11 19:36:00,
2013-04-11 12:41:00,68.4,51.0,29.87,North,0,0.0,0.0,54,0.00,,,0.00,WUHU216HW,2013-04-11 19:41:00,
2013-04-11 12:46:00,68.6,50.8,29.87,North,0,0.0,0.0,53,0.00,,,0.00,WUHU216HW,2013-04-11 19:46:00,
2013-04-11 12:51:00,69.1,51.2,29.87,North,0,0.0,0.0,53,0.00,,,0.00,WUHU216HW,2013-04-11 19:51:00,
2013-04-11 12:56:00,69.7,51.2,29.86,North,0,0.0,0.0,52,0.00,,,0.00,WUHU216HW,2013-04-11 19:56:00,
2013-04-11 13:01:00,69.8,51.0,29.86,North,0,0.0,0.0,51,0.00,,,0.00,WUHU216HW,2013-04-11 20:01:00,
2013-04-11 13:07:00,69.8,51.0,29.85,North,0,0.0,0.0,51,0.00,,,0.00,WUHU216HW,2013-04-11 20:07:00,
2013-04-11 13:12:00,70.2,51.8,29.85,North,0,0.0,0.0,52,0.00,,,0.00,WUHU216HW,2013-04-11 20:12:00,
2013-04-11 13:17:00,70.6,51.0,29.85,North,0,0.0,0.0,50,0.00,,,0.00,WUHU216HW,2013-04-11 20:17:00,
2013-04-11 13:22:00,70.9,51.4,29.84,North,0,0.0,0.0,50,0.00,,,0.00,WUHU216HW,2013-04-11 20:22:00,
2013-04-11 13:27:00,71.1,51.6,29.84,North,0,0.0,0.0,50,0.00,,,0.00,WUHU216HW,2013-04-11 20:27:00,
2013-04-11 13:32:00,71.3,51.1,29.84,North,0,0.0,0.0,49,0.00,,,0.00,WUHU216HW,2013-04-11 20:32:00,
2013-04-11 13:37:00,71.6,52.0,29.84,North,0,0.0,0.0,50,0.00,,,0.00,WUHU216HW,2013-04-11 20:37:00,
2013-04-11 13:42:00,72.0,51.1,29.83,North,0,0.0,0.0,48,0.00,,,0.00,WUHU216HW,2013-04-11 20:42:00,
2013-04-11 13:47:00,72.4,52.1,29.83,North,0,0.0,0.0,49,0.00,,,0.00,WUHU216HW,2013-04-11 20:47:00,
2013-04-11 13:53:00,72.7,51.2,29.82,North,0,0.0,0.0,47,0.00,,,0.00,WUHU216HW,2013-04-11 20:53:00,
2013-04-11 13:58:00,72.7,50.6,29.82,North,0,0.0,0.0,46,0.00,,,0.00,WUHU216HW,2013-04-11 20:58:00,
2013-04-11 14:03:00,72.9,50.8,29.82,North,0,0.0,0.0,46,0.00,,,0.00,WUHU216HW,2013-04-11 21:03:00,
2013-04-11 14:08:00,72.9,51.4,29.82,North,0,0.0,0.0,47,0.00,,,0.00,WUHU216HW,2013-04-11 21:08:00,
2013-04-11 14:13:00,72.9,51.4,29.82,North,0,0.0,0.0,47,0.00,,,0.00,WUHU216HW,2013-04-11 21:13:00,
2013-04-11 14:18:00,72.9,51.4,29.82,North,0,0.0,0.0,47,0.00,,,0.00,WUHU216HW,2013-04-11 21:18:00,
2013-04-11 14:23:00,73.1,51.6,29.81,North,0,0.0,0.0,47,0.00,,,0.00,WUHU216HW,2013-04-11 21:23:00,
2013-04-11 14:28:00,73.1,50.9,29.81,North,0,0.0,0.0,46,0.00,,,0.00,WUHU216HW,2013-04-11 21:28:00,
2013-04-11 14:33:00,72.4,51.5,29.81,North,0,0.0,0.0,48,0.00,,,0.00,WUHU216HW,2013-04-11 21:33:00,
2013-04-11 14:38:00,71.8,51.6,29.82,North,0,0.0,0.0,49,0.00,,,0.00,WUHU216HW,2013-04-11 21:38:00,
2013-04-11 14:43:00,71.6,51.4,29.81,North,0,0.0,0.0,49,0.00,,,0.00,WUHU216HW,2013-04-11 21:43:00,
2013-04-11 14:49:00,71.1,50.9,29.81,North,0,0.0,0.0,49,0.00,,,0.00,WUHU216HW,2013-04-11 21:49:00,
2013-04-11 14:54:00,71.1,51.6,29.81,North,0,0.0,0.0,50,0.00,,,0.00,WUHU216HW,2013-04-11 21:54:00,
2013-04-11 14:59:00,71.1,51.6,29.80,North,0,0.0,0.0,50,0.00,,,0.00,WUHU216HW,2013-04-11 21:59:00,
2013-04-11 15:04:00,71.5,51.8,29.80,North,0,0.0,0.0,50,0.00,,,0.00,WUHU216HW,2013-04-11 22:04:00,
2013-04-11 15:09:00,71.6,51.4,29.80,North,0,0.0,0.0,49,0.00,,,0.00,WUHU216HW,2013-04-11 22:09:00,
2013-04-11 15:14:00,71.5,51.3,29.80,North,0,0.0,0.0,49,0.00,,,0.00,WUHU216HW,2013-04-11 22:14:00,
2013-04-11 15:19:00,71.6,51.4,29.79,North,0,0.0,0.0,49,0.00,,,0.00,WUHU216HW,2013-04-11 22:19:00,
2013-04-11 15:24:00,71.8,52.2,29.80,North,0,0.0,0.0,50,0.00,,,0.00,WUHU216HW,2013-04-11 22:24:00,
2013-04-11 15:29:00,71.8,51.6,29.80,North,0,0.0,0.0,49,0.00,,,0.00,WUHU216HW,2013-04-11 22:29:00,
2013-04-11 15:34:00,71.6,50.9,29.80,North,0,0.0,0.0,48,0.00,,,0.00,WUHU216HW,2013-04-11 22:34:00,
2013-04-11 15:39:00,71.8,51.0,29.80,North,0,0.0,0.0,48,0.00,,,0.00,WUHU216HW,2013-04-11 22:39:00,
2013-04-11 15:44:00,72.4,51.5,29.79,North,0,0.0,0.0,48,0.00,,,0.00,WUHU216HW,2013-04-11 22:44:00,
2013-04-11 15:49:00,72.9,51.9,29.79,North,0,0.0,0.0,48,0.00,,,0.00,WUHU216HW,2013-04-11 22:49:00,
2013-04-11 15:55:00,73.3,51.7,29.78,North,0,0.0,0.0,47,0.00,,,0.00,WUHU216HW,2013-04-11 22:55:00,
2013-04-11 16:00:00,73.6,51.5,29.78,North,0,0.0,0.0,46,0.00,,,0.00,WUHU216HW,2013-04-11 23:00:00,
2013-04-11 16:05:00,74.0,51.2,29.78,North,0,0.0,0.0,45,0.00,,,0.00,WUHU216HW,2013-04-11 23:05:00,
2013-04-11 16:10:00,74.2,50.8,29.78,North,0,0.0,0.0,44,0.00,,,0.00,WUHU216HW,2013-04-11 23:10:00,
2013-04-11 16:15:00,73.8,50.4,29.77,North,0,0.0,0.0,44,0.00,,,0.00,WUHU216HW,2013-04-11 23:15:00,
2013-04-11 16:20:00,73.6,50.2,29.77,North,0,0.0,0.0,44,0.00,,,0.00,WUHU216HW,2013-04-11 23:20:00,
2013-04-11 16:25:00,73.4,50.0,29.76,North,0,0.0,0.0,44,0.00,,,0.00,WUHU216HW,2013-04-11 23:25:00,
2013-04-11 16:30:00,73.3,50.5,29.76,North,0,0.0,0.0,45,0.00,,,0.00,WUHU216HW,2013-04-11 23:30:00,
2013-04-11 16:35:00,73.4,50.0,29.76,North,0,0.0,0.0,44,0.00,,,0.00,WUHU216HW,2013-04-11 23:35:00,
2013-04-11 16:40:00,73.4,50.0,29.76,North,0,0.0,0.0,44,0.00,,,0.00,WUHU216HW,2013-04-11 23:40:00,
2013-04-11 16:45:00,73.6,50.2,29.76,North,0,0.0,0.0,44,0.00,,,0.00,WUHU216HW,2013-04-11 23:45:00,
2013-04-11 16:50:00,73.8,50.4,29.76,North,0,0.0,0.0,44,0.00,,,0.00,WUHU216HW,2013-04-11 23:50:00,
2013-04-11 16:55:00,74.0,50.6,29.75,North,0,0.0,0.0,44,0.00,,,0.00,WUHU216HW,2013-04-11 23:55:00,
2013-04-11 17:00:00,74.2,50.8,29.75,North,0,0.0,0.0,44,0.00,,,0.00,WUHU216HW,2013-04-12 00:00:00,
2013-04-11 17:05:00,74.0,50.6,29.76,North,0,0.0,0.0,44,0.00,,,0.00,WUHU216HW,2013-04-12 00:05:00,
2013-04-11 17:10:00,74.0,50.6,29.76,North,0,0.0,0.0,44,0.00,,,0.00,WUHU216HW,2013-04-12 00:10:00,
2013-04-11 17:15:00,74.0,50.0,29.76,North,0,0.0,0.0,43,0.00,,,0.00,WUHU216HW,2013-04-12 00:15:00,
2013-04-11 17:21:00,74.0,50.6,29.76,North,0,0.0,0.0,44,0.00,,,0.00,WUHU216HW,2013-04-12 00:21:00,
2013-04-11 17:26:00,74.0,50.6,29.75,North,0,0.0,0.0,44,0.00,,,0.00,WUHU216HW,2013-04-12 00:26:00,
2013-04-11 17:31:00,73.8,49.9,29.75,North,0,0.0,0.0,43,0.00,,,0.00,WUHU216HW,2013-04-12 00:31:00,
2013-04-11 17:36:00,73.8,50.4,29.75,North,0,0.0,0.0,44,0.00,,,0.00,WUHU216HW,2013-04-12 00:36:00,
2013-04-11 17:41:00,73.4,50.0,29.75,North,0,0.0,0.0,44,0.00,,,0.00,WUHU216HW,2013-04-12 00:41:00,
2013-04-11 17:46:00,73.3,50.0,29.75,North,0,0.0,0.0,44,0.00,,,0.00,WUHU216HW,2013-04-12 00:46:00,
2013-04-11 17:51:00,73.1,50.3,29.75,North,0,0.0,0.0,45,0.00,,,0.00,WUHU216HW,2013-04-12 00:51:00,
2013-04-11 17:56:00,72.9,50.2,29.75,North,0,0.0,0.0,45,0.00,,,0.00,WUHU216HW,2013-04-12 00:56:00,
2013-04-11 18:02:00,72.5,49.9,29.75,North,0,0.0,0.0,45,0.00,,,0.00,WUHU216HW,2013-04-12 01:02:00,
2013-04-11 18:07:00,72.0,49.4,29.75,North,0,0.0,0.0,45,0.00,,,0.00,WUHU216HW,2013-04-12 01:07:00,
2013-04-11 18:12:00,71.8,49.8,29.75,North,0,0.0,0.0,46,0.00,,,0.00,WUHU216HW,2013-04-12 01:12:00,
2013-04-11 18:17:00,71.6,49.7,29.75,North,0,0.0,0.0,46,0.00,,,0.00,WUHU216HW,2013-04-12 01:17:00,
2013-04-11 18:22:00,71.5,49.5,29.75,North,0,0.0,0.0,46,0.00,,,0.00,WUHU216HW,2013-04-12 01:22:00,
2013-04-11 18:27:00,71.3,50.0,29.75,North,0,0.0,0.0,47,0.00,,,0.00,WUHU216HW,2013-04-12 01:27:00,
2013-04-11 18:32:00,71.1,49.8,29.75,North,0,0.0,0.0,47,0.00,,,0.00,WUHU216HW,2013-04-12 01:32:00,
2013-04-11 18:37:00,70.7,49.4,29.75,North,0,0.0,0.0,47,0.00,,,0.00,WUHU216HW,2013-04-12 01:37:00,
2013-04-11 18:42:00,70.6,49.2,29.75,North,0,0.0,0.0,47,0.00,,,0.00,WUHU216HW,2013-04-12 01:42:00,
2013-04-11 18:47:00,70.2,49.5,29.75,North,0,0.0,0.0,48,0.00,,,0.00,WUHU216HW,2013-04-12 01:47:00,
2013-04-11 18:52:00,69.5,49.5,29.75,North,0,0.0,0.0,49,0.00,,,0.00,WUHU216HW,2013-04-12 01:52:00,
2013-04-11 18:57:00,69.1,49.1,29.75,North,0,0.0,0.0,49,0.00,,,0.00,WUHU216HW,2013-04-12 01:57:00,
2013-04-11 19:03:00,68.8,48.9,29.74,North,0,0.0,0.0,49,0.00,,,0.00,WUHU216HW,2013-04-12 02:03:00,
2013-04-11 19:08:00,68.0,48.8,29.74,North,0,0.0,0.0,50,0.00,,,0.00,WUHU216HW,2013-04-12 02:08:00,
2013-04-11 19:13:00,67.3,48.6,29.75,North,0,0.0,0.0,51,0.00,,,0.00,WUHU216HW,2013-04-12 02:13:00,
2013-04-11 19:18:00,66.4,48.3,29.75,North,0,0.0,0.0,52,0.00,,,0.00,WUHU216HW,2013-04-12 02:18:00,
2013-04-11 19:23:00,65.9,48.2,29.75,North,0,0.0,0.0,53,0.00,,,0.00,WUHU216HW,2013-04-12 02:23:00,
2013-04-11 19:28:00,65.3,48.3,29.75,North,0,0.0,0.0,54,0.00,,,0.00,WUHU216HW,2013-04-12 02:28:00,
2013-04-11 19:33:00,64.8,47.7,29.75,North,0,0.0,0.0,54,0.00,,,0.00,WUHU216HW,2013-04-12 02:33:00,
2013-04-11 19:38:00,64.4,47.8,29.75,North,0,0.0,0.0,55,0.00,,,0.00,WUHU216HW,2013-04-12 02:38:00,
2013-04-11 19:43:00,64.1,47.4,29.76,North,0,0.0,0.0,55,0.00,,,0.00,WUHU216HW,2013-04-12 02:43:00,
2013-04-11 19:48:00,63.7,47.2,29.76,North,0,0.0,0.0,55,0.00,,,0.00,WUHU216HW,2013-04-12 02:48:00,
2013-04-11 19:53:00,63.5,47.0,29.76,North,0,0.0,0.0,55,0.00,,,0.00,WUHU216HW,2013-04-12 02:53:00,
2013-04-11 19:58:00,63.4,46.8,29.75,North,0,0.0,0.0,55,0.00,,,0.00,WUHU216HW,2013-04-12 02:58:00,
2013-04-11 20:04:00,63.0,46.5,29.75,North,0,0.0,0.0,55,0.00,,,0.00,WUHU216HW,2013-04-12 03:04:00,
2013-04-11 20:09:00,62.8,46.8,29.75,North,0,0.0,0.0,56,0.00,,,0.00,WUHU216HW,2013-04-12 03:09:00,
2013-04-11 20:14:00,62.5,46.5,29.75,North,0,0.0,0.0,56,0.00,,,0.00,WUHU216HW,2013-04-12 03:14:00,
2013-04-11 20:19:00,61.9,46.5,29.75,North,0,0.0,0.0,57,0.00,,,0.00,WUHU216HW,2013-04-12 03:19:00,
2013-04-11 20:24:00,61.6,46.2,29.75,North,0,0.0,0.0,57,0.00,,,0.00,WUHU216HW,2013-04-12 03:24:00,
2013-04-11 20:29:00,61.2,46.4,29.75,North,0,0.0,0.0,58,0.00,,,0.00,WUHU216HW,2013-04-12 03:29:00,
2013-04-11 20:34:00,60.7,46.4,29.75,North,0,0.0,0.0,59,0.00,,,0.00,WUHU216HW,2013-04-12 03:34:00,
2013-04-11 20:39:00,60.3,46.4,29.75,North,0,0.0,0.0,60,0.00,,,0.00,WUHU216HW,2013-04-12 03:39:00,
2013-04-11 20:44:00,59.9,46.5,29.75,North,0,0.0,0.0,61,0.00,,,0.00,WUHU216HW,2013-04-12 03:44:00,
2013-04-11 20:49:00,59.6,46.2,29.75,North,0,0.0,0.0,61,0.00,,,0.00,WUHU216HW,2013-04-12 03:49:00,
2013-04-11 20:54:00,59.4,46.0,29.75,North,0,0.0,0.0,61,0.00,,,0.00,WUHU216HW,2013-04-12 03:54:00,
2013-04-11 20:59:00,59.2,45.8,29.75,North,0,0.0,0.0,61,0.00,,,0.00,WUHU216HW,2013-04-12 03:59:00,
2013-04-11 21:00:00,59.2,45.8,29.75,North,0,0.0,0.0,61,0.00,,,0.00,WUHU216HW,2013-04-12 04:00:00,
2013-04-11 21:03:00,59.0,45.6,29.75,North,0,0.0,0.0,61,0.00,,,0.00,WUHU216HW,2013-04-12 04:03:00,
2013-04-11 21:08:00,58.9,45.0,29.76,North,0,0.0,0.0,60,0.00,,,0.00,WUHU216HW,2013-04-12 04:08:00,
2013-04-11 21:13:00,58.7,45.3,29.76,North,0,0.0,0.0,61,0.00,,,0.00,WUHU216HW,2013-04-12 04:13:00,
2013-04-11 21:18:00,58.3,44.9,29.77,North,0,0.0,0.0,61,0.00,,,0.00,WUHU216HW,2013-04-12 04:18:00,
2013-04-11 21:23:00,58.1,45.2,29.76,North,0,0.0,0.0,62,0.00,,,0.00,WUHU216HW,2013-04-12 04:23:00,
2013-04-11 21:28:00,58.0,45.0,29.77,North,0,0.0,0.0,62,0.00,,,0.00,WUHU216HW,2013-04-12 04:28:00,
2013-04-11 21:33:00,57.6,45.1,29.77,North,0,0.0,0.0,63,0.00,,,0.00,WUHU216HW,2013-04-12 04:33:00,
2013-04-11 21:38:00,57.6,45.1,29.77,North,0,0.0,0.0,63,0.00,,,0.00,WUHU216HW,2013-04-12 04:38:00,
2013-04-11 21:43:00,57.2,45.2,29.77,North,0,0.0,0.0,64,0.00,,,0.00,WUHU216HW,2013-04-12 04:43:00,
2013-04-11 21:48:00,57.2,45.2,29.78,North,0,0.0,0.0,64,0.00,,,0.00,WUHU216HW,2013-04-12 04:48:00,
2013-04-11 21:53:00,56.9,44.8,29.78,North,0,0.0,0.0,64,0.00,,,0.00,WUHU216HW,2013-04-12 04:53:00,
2013-04-11 21:58:00,56.5,44.5,29.78,North,0,0.0,0.0,64,0.00,,,0.00,WUHU216HW,2013-04-12 04:58:00,
2013-04-11 22:03:00,56.5,44.5,29.78,North,0,0.0,0.0,64,0.00,,,0.00,WUHU216HW,2013-04-12 05:03:00,
2013-04-11 22:08:00,56.3,44.7,29.78,North,0,0.0,0.0,65,0.00,,,0.00,WUHU216HW,2013-04-12 05:08:00,
2013-04-11 22:13:00,56.2,44.6,29.78,North,0,0.0,0.0,65,0.00,,,0.00,WUHU216HW,2013-04-12 05:13:00,
2013-04-11 22:18:00,56.0,44.7,29.78,North,0,0.0,0.0,66,0.00,,,0.00,WUHU216HW,2013-04-12 05:18:00,
2013-04-11 22:24:00,55.8,44.6,29.78,North,0,0.0,0.0,66,0.00,,,0.00,WUHU216HW,2013-04-12 05:24:00,
2013-04-11 22:29:00,55.4,44.3,29.78,North,0,0.0,0.0,66,0.00,,,0.00,WUHU216HW,2013-04-12 05:29:00,
2013-04-11 22:34:00,55.3,44.5,29.77,North,0,0.0,0.0,67,0.00,,,0.00,WUHU216HW,2013-04-12 05:34:00,
2013-04-11 22:39:00,55.1,44.7,29.77,North,0,0.0,0.0,68,0.00,,,0.00,WUHU216HW,2013-04-12 05:39:00,
2013-04-11 22:44:00,54.9,44.6,29.77,North,0,0.0,0.0,68,0.00,,,0.00,WUHU216HW,2013-04-12 05:44:00,
2013-04-11 22:49:00,54.9,44.6,29.77,North,0,0.0,0.0,68,0.00,,,0.00,WUHU216HW,2013-04-12 05:49:00,
2013-04-11 22:54:00,54.7,44.4,29.77,North,0,0.0,0.0,68,0.00,,,0.00,WUHU216HW,2013-04-12 05:54:00,
2013-04-11 22:59:00,54.5,44.2,29.77,North,0,0.0,0.0,68,0.00,,,0.00,WUHU216HW,2013-04-12 05:59:00,
2013-04-11 23:04:00,54.4,44.0,29.77,North,0,0.0,0.0,68,0.00,,,0.00,WUHU216HW,2013-04-12 06:04:00,
2013-04-11 23:09:00,54.4,44.5,29.77,North,0,0.0,0.0,69,0.00,,,0.00,WUHU216HW,2013-04-12 06:09:00,
2013-04-11 23:14:00,54.2,44.3,29.77,North,0,0.0,0.0,69,0.00,,,0.00,WUHU216HW,2013-04-12 06:14:00,
2013-04-11 23:19:00,54.0,44.1,29.77,North,0,0.0,0.0,69,0.00,,,0.00,WUHU216HW,2013-04-12 06:19:00,
2013-04-11 23:24:00,53.8,43.9,29.77,North,0,0.0,0.0,69,0.00,,,0.00,WUHU216HW,2013-04-12 06:24:00,
2013-04-11 23:29:00,53.8,43.9,29.77,North,0,0.0,0.0,69,0.00,,,0.00,WUHU216HW,2013-04-12 06:29:00,
2013-04-11 23:34:00,53.6,43.8,29.76,North,0,0.0,0.0,69,0.00,,,0.00,WUHU216HW,2013-04-12 06:34:00,
2013-04-11 23:39:00,53.5,43.9,29.76,North,0,0.0,0.0,70,0.00,,,0.00,WUHU216HW,2013-04-12 06:39:00,
2013-04-11 23:45:00,53.3,43.7,29.76,North,0,0.0,0.0,70,0.00,,,0.00,WUHU216HW,2013-04-12 06:45:00,
2013-04-11 23:50:00,52.9,43.5,29.76,North,0,0.0,0.0,70,0.00,,,0.00,WUHU216HW,2013-04-12 06:50:00,
2013-04-11 23:55:00,52.9,43.8,29.76,North,0,0.0,0.0,71,0.00,,,0.00,WUHU216HW,2013-04-12 06:55:00,